Location: Newark
(48.1500°N, 2.9667°W)
Time: 01:57:01
(UTC+00:00)

A-11 Canister half - Pass Details

Date: 22 January 2020
Orbit: 1524 x 1684 km, 47.3° (Epoch: 21 February)

Event Time Altitude Azimuth Distance (km) Brightness Sun altitude
Rises 23:29:32 0° 286° (WNW) 4,755 11.9 -59.5°
Enters shadow 23:32:03 - 284° (WNW) 3,960 11.3 -59.6°
Reaches altitude 10° 23:32:36 10° 283° (WNW) 3,789 - -59.7°
Maximum altitude 23:42:06 64° 205° (SSW) 1,763 - -60.3°
Drops below altitude 10° 23:51:54 10° 127° (SE) 3,903 - -60.8°
Sets 23:55:06 0° 125° (SE) 4,904 - -60.9°
